Погода в Камышевке

Россия / Курганская область     56°21′10″N   64°47′43″E
темп.,
°C
ветер,
м/с
пор.,
м/с
влажн.,
%
обл.,
%
осадки,
мм/ч
давл.,
гПа
погр.,
м
16 мая, пн
пн1623:00+12ююз41180100 0.0 1005289
02:00+10ю3990100 0.0 1004208
05:00+10ююв3891100 0.2 1003216
08:00+10ю2594100 1.2 1002215
11:00+11юв2395100 2.9 1000208
14:00+13ююз248989 2.0 999182
17:00+17ююз466736 4.3 9971097
20:00+13юз378047 3.8 996153
17 мая, вт
вт1723:00+11зюз6119087 4.6 996370
02:00+10зюз51095100 0.4 997573
05:00+10зюз4895100 2.3 997481
08:00+9зюз5994100 0.8 998522
11:00+10зюз4994100 5.6 1000518
14:00+13з697393 2.4 10011185
17:00+14з6117076 2.9 10021352
20:00+12з22815 0.4 100336
18 мая, ср
ср1823:00+10ю22865 0.4 100422
02:00+9ю35825 0.0 100466
05:00+8ю3786100 0.0 1004134
08:00+13ююз597390 0.0 1005515
11:00+16юз575996 0.1 10051411
14:00+17юз5744100 0.1 10042082
17:00+18юз484084 0.1 10032452
20:00+14ю116136 0.0 100211
19 мая, чт
чт1923:00+9юз51292100 1.1 1003574
02:00+8ююз36977 1.4 1001174
05:00+7ююз259565 1.4 1001141
08:00+11зюз587724 0.0 1001567
11:00+14зюз686194 0.4 10021558
14:00+13зюз91163100 0.9 10031689
17:00+12зюз71064100 1.2 10041546
20:00+8з610815 0.0 1005826
20 мая, пт
пт2023:00+6зюз4119374 0.0 1006373
02:00+5зюз499528 0.0 1007320
05:00+4юз389513 0.0 1008225
08:00+8юз3569100 0.0 1008466
11:00+12юз355672 0.0 10081175
14:00+13юз4657100 0.0 10071477
17:00+10ссз3379100 1.1 1006386
20:00+9ссв1292100 2.4 100549